Showing default

COSMOS 2532, 43753

Orbit data source: Space-Track

COSMOS 2532, 43753 is a payload satellite owned by VVKO VKS (CIS) in LEO that was launched on Fri, 30 Nov 2018 UTC via an ROKOT launch vehicle from the Plesetsk Missile And Space Complex (PKMTR). Payload-class satellites include a variety of spacecraft equipped with specific instruments for various scientific and technological missions. These include communications satellites like Starlink; space stations such as the ISS; scientific satellites like the Hubble; Earth observation satellites from companies like Planet Labs, Umbra, and HawkEye 360; GPS; miniature CubeSats for education and research; and military/defense satellites.

Loading next visibility...
Identifier
43753, 2018-097C
Orbit
LEO
Country
Flag of CISCIS
Related business
Manufacturer
Resehetnev ISS
Mission
Operational Defense Communications
Bus & Motor
STRELA-3M, Unknown motor
Mass
280 kg wet, 280 kg dry
Launch date (UTC)
2018-11-30 (7 years ago)
Launch vehicle
ROKOT
Launch site
Plesetsk Missile And Space Complex (PKMTR)
Object type
Payload
Rocket body
Debris
Shape & HBR
Cyl + 1 Ant, 3.5 m
Radar Cross Section
1.583 m², Large (>1 m²)

Expand to show TLE details & history
Last TLE update: 5 hours ago

TLE from 5 hours ago
0 COSMOS 2532
1 43753U 18097C   25310.77447470  .00000047  00000-0  26496-3 0  9999
2 43753  82.5176   0.2170 0018418 177.7309 182.3858 12.42865168314645
Epoch: 2025-11-06T18:35Z
TLE epoch observation values (Epoch: 2025-11-06T18:35:14.614Z)
Latitude
0.00005°
Longitude
35.17815°
Altitude
1,511.671 km
Speed
7.103 km/s
True Right ascension
00h 00m 52s
True Declination
0° 00' 00"
Sunlit
Object was in full shadow at epoch
Visualization orbit readout
Latitude
Unknown
Longitude
Unknown
Altitude
Unknown
Speed
Unknown
Apparent Right ascension
Unknown
Apparent Declination
Unknown
Sunlit
N/A
Visualization observer readout
Local Sidereal Time
19:28:51
Azimuth
Unknown
Elevation
Unknown
Doppler factor
Unknown
Orbital elements
Apogee altitude
1,506.326 km
Perigee altitude
1,477.336 km
Semi-major axis
7,869.968 km
Eccentricity
0.00184
Inclination
82.5176°
RAAN
0.217°
Arg. of periapsis
177.7309°
True anomaly
182.37703°
Mean anomaly
182.3858°
Eccentric anomaly
182.38142°
Mean motion
3.10873 °/min
Orbital period
115.8 mins
BSTAR
0.00026496
Loading maneuver chart data...
Computing Atmospheric mass density...
Loading historical data...
Loading historical data...
Loading historical data...
Loading historical data...
Loading historical data...
Loading historical data...
Loading historical data...
Other satellites on launch #97 in the year 2018 (2018-11-30 UTC)

Documentation

Showing up to 5 results
|